Station Historical Data
Daily Summary for September 30, 2017 Units:  English    Metric   Both
Next Day »
Daily Weekly Monthly Yearly Custom
  High: Low: Average:
Temperature: 72.9 °F 56.9 °F 63.7 °F
Dew Point: 49.7 °F 37.0 °F 43 °F
Humidity: 57% 38% 47%
Wind Speed: 11.0mph 0.0mph 1.8mph
Wind Gust: 13.0mph - -
Wind- - SSW
Pressure: 29.96 in 29.89 in -
Precipitation: 0.00 in    
Historical Graphs
 
 
Tabular Data for September 30, 2017
Time Temperature Dew Point Pressure Wind Wind Speed Wind Gust Humidity Rainfall Rate (Hourly) solar Conditions
00:04 61.3 °F 38.0 °F 29.91 in ESE 5.0 mph 8.0 mph 42% 0.00 in 0.00 W/m2
00:09 61.3 °F 38.0 °F 29.91 in ESE 7.0 mph 11.0 mph 42% 0.00 in 0.00 W/m2
00:14 61.2 °F 38.0 °F 29.91 in ESE 4.0 mph 9.0 mph 42% 0.00 in 0.00 W/m2
00:19 61.1 °F 37.9 °F 29.91 in Calm   11.0 mph 42% 0.00 in 0.00 W/m2
00:24 61.0 °F 37.8 °F 29.91 in ESE 6.0 mph 13.0 mph 42% 0.00 in 0.00 W/m2
00:29 60.9 °F 37.7 °F 29.91 in ESE 5.0 mph 8.0 mph 42% 0.00 in 0.00 W/m2
00:34 60.8 °F 37.6 °F 29.91 in Calm   12.0 mph 42% 0.00 in 0.00 W/m2
00:39 60.7 °F 37.5 °F 29.91 in Calm   6.0 mph 42% 0.00 in 0.00 W/m2
00:44 60.7 °F 37.5 °F 29.91 in ESE 1.0 mph 8.0 mph 42% 0.00 in 0.00 W/m2
00:49 60.6 °F 37.4 °F 29.91 in ESE 5.0 mph 6.0 mph 42% 0.00 in 0.00 W/m2
00:54 60.5 °F 37.3 °F 29.91 in Calm   8.0 mph 42% 0.00 in 0.00 W/m2
00:59 60.4 °F 37.2 °F 29.91 in Calm   8.0 mph 42% 0.00 in 0.00 W/m2
01:04 60.4 °F 37.2 °F 29.91 in Calm   12.0 mph 42% 0.00 in 0.00 W/m2
01:09 60.3 °F 37.1 °F 29.91 in Calm   6.0 mph 42% 0.00 in 0.00 W/m2
01:14 60.3 °F 37.1 °F 29.91 in Calm   6.0 mph 42% 0.00 in 0.00 W/m2
01:19 60.2 °F 37.6 °F 29.91 in ESE 4.0 mph 8.0 mph 43% 0.00 in 0.00 W/m2
01:24 60.1 °F 37.5 °F 29.91 in Calm   8.0 mph 43% 0.00 in 0.00 W/m2
01:29 60.0 °F 37.5 °F 29.91 in Calm   7.0 mph 43% 0.00 in 0.00 W/m2
01:34 60.0 °F 37.5 °F 29.91 in ESE 4.0 mph 7.0 mph 43% 0.00 in 0.00 W/m2
01:39 59.9 °F 38.0 °F 29.91 in ESE 2.0 mph 7.0 mph 44% 0.00 in 0.00 W/m2
01:44 59.8 °F 37.9 °F 29.91 in ESE 6.0 mph 7.0 mph 44% 0.00 in 0.00 W/m2
01:49 59.8 °F 37.3 °F 29.91 in ESE 2.0 mph 9.0 mph 43% 0.00 in 0.00 W/m2
01:54 59.7 °F 37.2 °F 29.91 in SE 1.0 mph 8.0 mph 43% 0.00 in 0.00 W/m2
01:59 59.7 °F 37.2 °F 29.91 in SE 6.0 mph 9.0 mph 43% 0.00 in 0.00 W/m2
02:04 59.7 °F 37.8 °F 29.90 in SE 5.0 mph 11.0 mph 44% 0.00 in 0.00 W/m2
02:09 59.7 °F 37.8 °F 29.90 in SE 7.0 mph 11.0 mph 44% 0.00 in 0.00 W/m2
02:14 59.6 °F 37.7 °F 29.91 in SE 6.0 mph 9.0 mph 44% 0.00 in 0.00 W/m2
02:19 59.6 °F 37.7 °F 29.90 in SE 5.0 mph 9.0 mph 44% 0.00 in 0.00 W/m2
02:24 59.6 °F 37.7 °F 29.91 in Calm   11.0 mph 44% 0.00 in 0.00 W/m2
02:29 59.6 °F 37.1 °F 29.90 in SE 2.0 mph 11.0 mph 43% 0.00 in 0.00 W/m2
02:34 59.5 °F 37.0 °F 29.91 in SE 6.0 mph 9.0 mph 43% 0.00 in 0.00 W/m2
02:39 59.5 °F 37.6 °F 29.90 in SE 4.0 mph 11.0 mph 44% 0.00 in 0.00 W/m2
02:44 59.4 °F 37.5 °F 29.90 in SE 7.0 mph 11.0 mph 44% 0.00 in 0.00 W/m2
02:50 59.3 °F 37.4 °F 29.90 in SE 9.0 mph 9.0 mph 44% 0.00 in 0.00 W/m2
02:55 59.3 °F 37.4 °F 29.90 in Calm   9.0 mph 44% 0.00 in 0.00 W/m2
03:00 59.3 °F 38.0 °F 29.90 in SE 4.0 mph 11.0 mph 45% 0.00 in 0.00 W/m2
03:05 59.2 °F 37.3 °F 29.90 in SE 11.0 mph 11.0 mph 44% 0.00 in 0.00 W/m2
03:10 59.2 °F 37.3 °F 29.90 in Calm   11.0 mph 44% 0.00 in 0.00 W/m2
03:15 59.2 °F 37.3 °F 29.89 in SE 5.0 mph 11.0 mph 44% 0.00 in 0.00 W/m2
03:20 59.2 °F 37.3 °F 29.89 in Calm   9.0 mph 44% 0.00 in 0.00 W/m2
03:25 59.1 °F 37.2 °F 29.89 in SE 4.0 mph 10.0 mph 44% 0.00 in 0.00 W/m2
03:30 59.1 °F 37.2 °F 29.89 in Calm   9.0 mph 44% 0.00 in 0.00 W/m2
03:35 59.1 °F 37.2 °F 29.89 in SE 5.0 mph 8.0 mph 44% 0.00 in 0.00 W/m2
03:40 59.1 °F 37.8 °F 29.89 in Calm   9.0 mph 45% 0.00 in 0.00 W/m2
03:42 59.1 °F 37.8 °F 29.89 in SE 2.0 mph 8.0 mph 45% 0.00 in 0.00 W/m2
03:47 59.1 °F 37.8 °F 29.89 in SE 1.0 mph 7.0 mph 45% 0.00 in 0.00 W/m2
03:52 59.1 °F 37.8 °F 29.89 in SE 4.0 mph 8.0 mph 45% 0.00 in 0.00 W/m2
03:57 59.1 °F 38.4 °F 29.89 in Calm   4.0 mph 46% 0.00 in 0.00 W/m2
04:02 59.1 °F 37.8 °F 29.89 in SE 2.0 mph 7.0 mph 45% 0.00 in 0.00 W/m2
04:07 59.1 °F 38.4 °F 29.89 in Calm   9.0 mph 46% 0.00 in 0.00 W/m2
04:12 59.1 °F 38.4 °F 29.89 in SE 2.0 mph 8.0 mph 46% 0.00 in 0.00 W/m2
04:17 59.0 °F 38.3 °F 29.89 in Calm   9.0 mph 46% 0.00 in 0.00 W/m2
04:22 59.0 °F 38.3 °F 29.89 in SE 2.0 mph 7.0 mph 46% 0.00 in 0.00 W/m2
04:27 59.0 °F 37.7 °F 29.89 in SE 4.0 mph 5.0 mph 45% 0.00 in 0.00 W/m2
04:32 59.0 °F 38.3 °F 29.89 in ESE 2.0 mph 11.0 mph 46% 0.00 in 0.00 W/m2
04:37 59.0 °F 38.3 °F 29.89 in ESE 5.0 mph 7.0 mph 46% 0.00 in 0.00 W/m2
04:42 59.0 °F 37.7 °F 29.89 in SE 5.0 mph 7.0 mph 45% 0.00 in 0.00 W/m2
04:47 58.9 °F 37.6 °F 29.89 in SE 1.0 mph 8.0 mph 45% 0.00 in 0.00 W/m2
04:52 58.9 °F 37.6 °F 29.90 in SE 4.0 mph 6.0 mph 45% 0.00 in 0.00 W/m2
04:57 58.9 °F 37.6 °F 29.89 in ESE 7.0 mph 8.0 mph 45% 0.00 in 0.00 W/m2
05:02 58.8 °F 37.5 °F 29.89 in ESE 1.0 mph 8.0 mph 45% 0.00 in 0.00 W/m2
05:07 58.8 °F 37.5 °F 29.89 in Calm   8.0 mph 45% 0.00 in 0.00 W/m2
05:12 58.8 °F 37.5 °F 29.89 in ESE 5.0 mph 7.0 mph 45% 0.00 in 0.00 W/m2
05:17 58.7 °F 37.4 °F 29.89 in ESE 8.0 mph 8.0 mph 45% 0.00 in 0.00 W/m2
05:22 58.7 °F 37.4 °F 29.89 in ESE 5.0 mph 5.0 mph 45% 0.00 in 0.00 W/m2
05:27 58.7 °F 37.4 °F 29.89 in Calm   6.0 mph 45% 0.00 in 0.00 W/m2
05:32 58.6 °F 37.3 °F 29.90 in ESE 5.0 mph 7.0 mph 45% 0.00 in 0.00 W/m2
05:37 58.6 °F 37.3 °F 29.90 in ESE 2.0 mph 7.0 mph 45% 0.00 in 0.00 W/m2
05:42 58.6 °F 37.3 °F 29.90 in Calm   6.0 mph 45% 0.00 in 0.00 W/m2
05:48 58.5 °F 37.2 °F 29.90 in ESE 2.0 mph 6.0 mph 45% 0.00 in 0.00 W/m2
05:53 58.5 °F 37.2 °F 29.90 in Calm   6.0 mph 45% 0.00 in 0.00 W/m2
05:58 58.5 °F 37.2 °F 29.90 in Calm   5.0 mph 45% 0.00 in 0.00 W/m2
06:03 58.4 °F 37.2 °F 29.90 in Calm     45% 0.00 in 0.00 W/m2
06:08 58.4 °F 37.2 °F 29.90 in ESE 2.0 mph 7.0 mph 45% 0.00 in 0.00 W/m2
06:13 58.4 °F 37.2 °F 29.91 in Calm   6.0 mph 45% 0.00 in 0.00 W/m2
06:18 58.3 °F 37.1 °F 29.91 in Calm   6.0 mph 45% 0.00 in 0.00 W/m2
06:23 58.2 °F 37.0 °F 29.91 in Calm   1.0 mph 45% 0.00 in 0.00 W/m2
06:28 58.1 °F 37.5 °F 29.91 in ESE 2.0 mph 5.0 mph 46% 0.00 in 0.00 W/m2
06:33 58.1 °F 37.5 °F 29.91 in ESE 2.0 mph 7.0 mph 46% 0.00 in 0.00 W/m2
06:38 58.0 °F 37.4 °F 29.92 in Calm     46% 0.00 in 0.00 W/m2
06:43 57.9 °F 37.3 °F 29.92 in Calm     46% 0.00 in 0.00 W/m2
06:48 57.7 °F 37.1 °F 29.92 in Calm   1.0 mph 46% 0.00 in 0.00 W/m2
06:53 57.7 °F 37.1 °F 29.92 in ESE 1.0 mph 5.0 mph 46% 0.00 in 0.00 W/m2
06:54 57.7 °F 37.1 °F 29.92 in Calm   5.0 mph 46% 0.00 in 0.00 W/m2
06:59 57.6 °F 37.5 °F 29.92 in Calm   6.0 mph 47% 0.00 in 5.00 W/m2
07:04 57.5 °F 37.5 °F 29.92 in Calm   4.0 mph 47% 0.00 in 7.00 W/m2
07:09 57.3 °F 37.8 °F 29.92 in Calm     48% 0.00 in 11.00 W/m2
07:14 57.3 °F 37.8 °F 29.92 in Calm   5.0 mph 48% 0.00 in 12.00 W/m2
07:15 57.3 °F 37.8 °F 29.92 in Calm   5.0 mph 48% 0.00 in 14.00 W/m2
07:25 57.1 °F 37.6 °F 29.92 in Calm   2.0 mph 48% 0.00 in 21.00 W/m2
07:30 57.0 °F 37.5 °F 29.93 in Calm   4.0 mph 48% 0.00 in 35.00 W/m2
07:35 57.0 °F 37.5 °F 29.93 in Calm     48% 0.00 in 49.00 W/m2
07:40 57.0 °F 37.5 °F 29.93 in Calm     48% 0.00 in 63.00 W/m2
07:45 56.9 °F 37.4 °F 29.93 in Calm     48% 0.00 in 79.00 W/m2
07:50 56.9 °F 37.4 °F 29.93 in Calm     48% 0.00 in 95.00 W/m2
07:55 56.9 °F 38.0 °F 29.93 in Calm   4.0 mph 49% 0.00 in 113.00 W/m2
08:00 56.9 °F 38.0 °F 29.93 in Calm   4.0 mph 49% 0.00 in 132.00 W/m2
08:05 56.9 °F 38.5 °F 29.93 in Calm   5.0 mph 50% 0.00 in 153.00 W/m2
08:10 57.0 °F 38.6 °F 29.93 in ESE 4.0 mph 4.0 mph 50% 0.00 in 172.00 W/m2
08:15 57.1 °F 38.7 °F 29.93 in Calm   5.0 mph 50% 0.00 in 186.00 W/m2
08:20 57.2 °F 39.2 °F 29.93 in Calm   6.0 mph 51% 0.00 in 211.00 W/m2
08:25 57.3 °F 39.3 °F 29.93 in Calm   5.0 mph 51% 0.00 in 232.00 W/m2
08:30 57.4 °F 39.4 °F 29.93 in Calm   2.0 mph 51% 0.00 in 253.00 W/m2
08:35 57.5 °F 39.5 °F 29.93 in Calm   1.0 mph 51% 0.00 in 274.00 W/m2
08:40 57.7 °F 39.7 °F 29.94 in Calm   5.0 mph 51% 0.00 in 294.00 W/m2
08:45 57.8 °F 40.3 °F 29.94 in Calm   5.0 mph 52% 0.00 in 309.00 W/m2
08:50 58.0 °F 40.5 °F 29.94 in Calm   4.0 mph 52% 0.00 in 327.00 W/m2
08:55 58.3 °F 40.8 °F 29.94 in ESE 1.0 mph 5.0 mph 52% 0.00 in 343.00 W/m2
09:00 58.6 °F 41.0 °F 29.94 in ESE 1.0 mph 5.0 mph 52% 0.00 in 357.00 W/m2
09:01 58.6 °F 41.0 °F 29.94 in ESE 5.0 mph 5.0 mph 52% 0.00 in 359.00 W/m2
09:06 58.9 °F 41.3 °F 29.94 in Calm     52% 0.00 in 374.00 W/m2
09:11 59.1 °F 41.5 °F 29.94 in Calm     52% 0.00 in 390.00 W/m2
09:16 59.4 °F 41.8 °F 29.95 in Calm     52% 0.00 in 406.00 W/m2
09:21 59.8 °F 42.2 °F 29.95 in Calm     52% 0.00 in 420.00 W/m2
09:26 60.3 °F 42.1 °F 29.95 in Calm     51% 0.00 in 432.00 W/m2
09:31 61.0 °F 42.2 °F 29.95 in Calm   1.0 mph 50% 0.00 in 448.00 W/m2
09:36 61.5 °F 42.2 °F 29.94 in Calm     49% 0.00 in 462.00 W/m2
09:41 62.1 °F 42.7 °F 29.95 in Calm     49% 0.00 in 475.00 W/m2
09:46 62.5 °F 43.1 °F 29.94 in ESE 2.0 mph 2.0 mph 49% 0.00 in 490.00 W/m2
09:51 62.8 °F 43.4 °F 29.94 in Calm     49% 0.00 in 503.00 W/m2
09:56 63.1 °F 43.1 °F 29.94 in Calm     48% 0.00 in 515.00 W/m2
10:01 63.4 °F 43.4 °F 29.94 in ESE 1.0 mph 2.0 mph 48% 0.00 in 529.00 W/m2
10:06 63.9 °F 43.3 °F 29.94 in Calm     47% 0.00 in 541.00 W/m2
10:11 64.3 °F 43.7 °F 29.94 in Calm     47% 0.00 in 554.00 W/m2
10:16 64.6 °F 43.9 °F 29.95 in East 2.0 mph 2.0 mph 47% 0.00 in 566.00 W/m2
10:21 64.8 °F 43.0 °F 29.95 in ENE 2.0 mph 4.0 mph 45% 0.00 in 577.00 W/m2
10:26 64.9 °F 43.1 °F 29.95 in NNE 4.0 mph 4.0 mph 45% 0.00 in 589.00 W/m2
10:31 64.9 °F 42.5 °F 29.95 in NNE 1.0 mph 2.0 mph 44% 0.00 in 598.00 W/m2
10:36 65.0 °F 42.6 °F 29.95 in Calm     44% 0.00 in 612.00 W/m2
10:41 65.1 °F 43.3 °F 29.96 in North 8.0 mph 8.0 mph 45% 0.00 in 621.00 W/m2
10:46 65.2 °F 43.3 °F 29.96 in Calm   4.0 mph 45% 0.00 in 633.00 W/m2
10:51 65.4 °F 43.5 °F 29.96 in NNW 1.0 mph 2.0 mph 45% 0.00 in 638.00 W/m2
10:56 65.7 °F 43.8 °F 29.95 in Calm   2.0 mph 45% 0.00 in 647.00 W/m2
11:01 65.9 °F 44.0 °F 29.95 in Calm     45% 0.00 in 659.00 W/m2
11:06 66.1 °F 43.6 °F 29.95 in Calm     44% 0.00 in 666.00 W/m2
11:11 66.4 °F 43.8 °F 29.95 in Calm     44% 0.00 in 675.00 W/m2
11:16 66.6 °F 44.0 °F 29.95 in Calm   3.0 mph 44% 0.00 in 682.00 W/m2
11:21 66.9 °F 44.3 °F 29.95 in Calm   2.0 mph 44% 0.00 in 691.00 W/m2
11:26 67.2 °F 44.6 °F 29.95 in Calm   2.0 mph 44% 0.00 in 696.00 W/m2
11:31 67.4 °F 44.8 °F 29.95 in Calm   1.0 mph 44% 0.00 in 703.00 W/m2
11:36 67.6 °F 44.9 °F 29.95 in WNW 4.0 mph 5.0 mph 44% 0.00 in 710.00 W/m2
11:41 68.0 °F 45.9 °F 29.96 in Calm   3.0 mph 45% 0.00 in 712.00 W/m2
11:47 68.2 °F 45.5 °F 29.95 in WNW 5.0 mph 5.0 mph 44% 0.00 in 722.00 W/m2
11:52 68.5 °F 45.8 °F 29.95 in Calm     44% 0.00 in 726.00 W/m2
11:57 68.7 °F 46.5 °F 29.95 in West 3.0 mph 4.0 mph 45% 0.00 in 735.00 W/m2
12:02 68.9 °F 46.7 °F 29.95 in Calm   6.0 mph 45% 0.00 in 742.00 W/m2
12:07 69.0 °F 46.2 °F 29.95 in Calm     44% 0.00 in 754.00 W/m2
12:12 69.2 °F 47.0 °F 29.95 in West 3.0 mph 3.0 mph 45% 0.00 in 756.00 W/m2
12:17 69.3 °F 46.5 °F 29.95 in Calm   6.0 mph 44% 0.00 in 712.00 W/m2
12:22 69.4 °F 47.2 °F 29.95 in WNW 3.0 mph 3.0 mph 45% 0.00 in 758.00 W/m2
12:27 69.8 °F 46.9 °F 29.94 in WNW 1.0 mph 3.0 mph 44% 0.00 in 759.00 W/m2
12:32 70.0 °F 47.1 °F 29.94 in WNW 2.0 mph 3.0 mph 44% 0.00 in 756.00 W/m2
12:37 70.2 °F 46.7 °F 29.95 in Calm   3.0 mph 43% 0.00 in 758.00 W/m2
12:42 70.3 °F 46.8 °F 29.95 in WNW 3.0 mph 6.0 mph 43% 0.00 in 754.00 W/m2
12:47 70.4 °F 46.9 °F 29.94 in WNW 6.0 mph 7.0 mph 43% 0.00 in 756.00 W/m2
12:52 70.5 °F 47.6 °F 29.94 in Calm   6.0 mph 44% 0.00 in 754.00 W/m2
12:57 70.7 °F 47.1 °F 29.95 in West 3.0 mph 3.0 mph 43% 0.00 in 754.00 W/m2
13:02 71.1 °F 47.5 °F 29.94 in West 4.0 mph 4.0 mph 43% 0.00 in 754.00 W/m2
13:07 71.3 °F 47.0 °F 29.94 in WNW 6.0 mph 6.0 mph 42% 0.00 in 754.00 W/m2
13:12 71.4 °F 47.1 °F 29.94 in Calm   6.0 mph 42% 0.00 in 749.00 W/m2
13:17 71.7 °F 46.8 °F 29.93 in Calm   5.0 mph 41% 0.00 in 747.00 W/m2
13:22 71.8 °F 46.2 °F 29.93 in Calm     40% 0.00 in 747.00 W/m2
13:27 71.9 °F 46.3 °F 29.93 in Calm   2.0 mph 40% 0.00 in 747.00 W/m2
13:32 72.0 °F 47.0 °F 29.93 in West 7.0 mph 7.0 mph 41% 0.00 in 744.00 W/m2
13:37 72.2 °F 46.6 °F 29.93 in Calm   6.0 mph 40% 0.00 in 740.00 W/m2
13:42 72.6 °F 46.2 °F 29.93 in WNW 6.0 mph 8.0 mph 39% 0.00 in 742.00 W/m2
13:47 72.6 °F 46.9 °F 29.93 in NW 3.0 mph 4.0 mph 40% 0.00 in 752.00 W/m2
13:52 72.8 °F 47.1 °F 29.93 in NW 4.0 mph 5.0 mph 40% 0.00 in 752.00 W/m2
13:57 72.8 °F 46.4 °F 29.92 in NW 4.0 mph 6.0 mph 39% 0.00 in 772.00 W/m2
14:02 72.8 °F 45.7 °F 29.92 in WNW 3.0 mph 7.0 mph 38% 0.00 in 784.00 W/m2
14:07 72.9 °F 45.8 °F 29.92 in NW 3.0 mph 8.0 mph 38% 0.00 in 809.00 W/m2
14:12 72.9 °F 46.5 °F 29.92 in Calm   8.0 mph 39% 0.00 in 754.00 W/m2
14:17 72.9 °F 46.5 °F 29.92 in WNW 7.0 mph 9.0 mph 39% 0.00 in 492.00 W/m2
14:22 72.8 °F 46.4 °F 29.92 in NNW 4.0 mph 8.0 mph 39% 0.00 in 443.00 W/m2
14:27 72.7 °F 46.3 °F 29.92 in Calm   3.0 mph 39% 0.00 in 378.00 W/m2
14:32 72.4 °F 46.7 °F 29.92 in Calm   4.0 mph 40% 0.00 in 343.00 W/m2
14:37 72.3 °F 47.3 °F 29.92 in Calm   4.0 mph 41% 0.00 in 364.00 W/m2
14:42 72.1 °F 47.8 °F 29.92 in NW 4.0 mph 7.0 mph 42% 0.00 in 482.00 W/m2
14:47 72.1 °F 47.8 °F 29.92 in NW 1.0 mph 8.0 mph 42% 0.00 in 613.00 W/m2
14:52 72.2 °F 47.9 °F 29.92 in WNW 7.0 mph 9.0 mph 42% 0.00 in 431.00 W/m2
14:57 72.1 °F 47.8 °F 29.92 in Calm   9.0 mph 42% 0.00 in 315.00 W/m2
15:02 71.7 °F 48.0 °F 29.92 in NW 3.0 mph 7.0 mph 43% 0.00 in 483.00 W/m2
15:07 71.5 °F 48.5 °F 29.92 in Calm   7.0 mph 44% 0.00 in 443.00 W/m2
15:17 71.5 °F 49.7 °F 29.92 in WSW 4.0 mph 8.0 mph 46% 0.00 in 610.00 W/m2
15:22 71.7 °F 49.2 °F 29.92 in Calm   7.0 mph 45% 0.00 in 411.00 W/m2
15:27 71.8 °F 49.3 °F 29.92 in WNW 5.0 mph 8.0 mph 45% 0.00 in 591.00 W/m2
15:32 71.9 °F 49.4 °F 29.92 in WNW 6.0 mph 9.0 mph 45% 0.00 in 570.00 W/m2
15:37 71.9 °F 49.4 °F 29.92 in West 1.0 mph 9.0 mph 45% 0.00 in 494.00 W/m2
15:42 72.0 °F 49.5 °F 29.92 in WNW 6.0 mph 6.0 mph 45% 0.00 in 387.00 W/m2
15:47 72.1 °F 49.6 °F 29.92 in WSW 3.0 mph 8.0 mph 45% 0.00 in 330.00 W/m2
15:52 72.0 °F 48.9 °F 29.92 in West 1.0 mph 5.0 mph 44% 0.00 in 485.00 W/m2
15:58 72.1 °F 49.0 °F 29.92 in Calm   5.0 mph 44% 0.00 in 489.00 W/m2
16:03 72.1 °F 49.6 °F 29.91 in WNW 2.0 mph 6.0 mph 45% 0.00 in 464.00 W/m2
16:08 72.1 °F 49.6 °F 29.91 in West 1.0 mph 6.0 mph 45% 0.00 in 397.00 W/m2
16:13 72.1 °F 49.6 °F 29.91 in Calm   4.0 mph 45% 0.00 in 459.00 W/m2
16:18 72.1 °F 49.0 °F 29.91 in West 4.0 mph 6.0 mph 44% 0.00 in 436.00 W/m2
16:23 72.1 °F 49.0 °F 29.91 in WNW 8.0 mph 8.0 mph 44% 0.00 in 418.00 W/m2
16:28 72.1 °F 49.0 °F 29.91 in Calm   1.0 mph 44% 0.00 in 397.00 W/m2
16:33 72.0 °F 48.9 °F 29.91 in Calm   8.0 mph 44% 0.00 in 373.00 W/m2
16:38 71.8 °F 48.7 °F 29.91 in NW 5.0 mph 5.0 mph 44% 0.00 in 357.00 W/m2
16:43 71.7 °F 48.7 °F 29.91 in Calm     44% 0.00 in 336.00 W/m2
16:48 71.7 °F 48.7 °F 29.91 in NW 1.0 mph 4.0 mph 44% 0.00 in 336.00 W/m2
16:53 71.7 °F 49.2 °F 29.91 in Calm   6.0 mph 45% 0.00 in 320.00 W/m2
16:58 71.8 °F 48.1 °F 29.91 in West 1.0 mph 6.0 mph 43% 0.00 in 292.00 W/m2
17:03 71.7 °F 48.7 °F 29.91 in Calm   4.0 mph 44% 0.00 in 279.00 W/m2
17:08 71.7 °F 48.7 °F 29.91 in Calm   4.0 mph 44% 0.00 in 264.00 W/m2
17:13 71.5 °F 47.8 °F 29.91 in Calm   1.0 mph 43% 0.00 in 264.00 W/m2
17:18 71.4 °F 47.8 °F 29.91 in Calm     43% 0.00 in 246.00 W/m2
17:23 71.3 °F 48.3 °F 29.91 in Calm     44% 0.00 in 227.00 W/m2
17:28 71.1 °F 48.1 °F 29.91 in Calm   1.0 mph 44% 0.00 in 202.00 W/m2
17:33 70.9 °F 47.9 °F 29.91 in Calm   1.0 mph 44% 0.00 in 195.00 W/m2
17:38 70.7 °F 48.3 °F 29.91 in Calm   1.0 mph 45% 0.00 in 167.00 W/m2
17:43 70.6 °F 48.8 °F 29.91 in Calm   1.0 mph 46% 0.00 in 149.00 W/m2
17:48 70.5 °F 49.3 °F 29.91 in Calm     47% 0.00 in 130.00 W/m2
17:53 70.3 °F 49.1 °F 29.91 in WNW 4.0 mph 4.0 mph 47% 0.00 in 118.00 W/m2
17:58 70.1 °F 49.5 °F 29.91 in WNW 6.0 mph 6.0 mph 48% 0.00 in 98.00 W/m2
18:03 69.9 °F 48.8 °F 29.91 in Calm   4.0 mph 47% 0.00 in 72.00 W/m2
18:08 69.8 °F 49.2 °F 29.92 in Calm     48% 0.00 in 51.00 W/m2
18:13 69.6 °F 49.1 °F 29.92 in Calm   1.0 mph 48% 0.00 in 28.00 W/m2
18:14 69.5 °F 49.0 °F 29.92 in Calm   1.0 mph 48% 0.00 in 28.00 W/m2
18:19 69.4 °F 48.9 °F 29.92 in Calm     48% 0.00 in 26.00 W/m2
18:24 69.2 °F 49.2 °F 29.92 in Calm     49% 0.00 in 23.00 W/m2
18:29 69.0 °F 49.1 °F 29.92 in Calm     49% 0.00 in 19.00 W/m2
18:34 68.8 °F 49.4 °F 29.92 in Calm   1.0 mph 50% 0.00 in 16.00 W/m2
18:39 68.3 °F 49.0 °F 29.92 in Calm     50% 0.00 in 12.00 W/m2
18:44 68.0 °F 48.7 °F 29.92 in Calm     50% 0.00 in 7.00 W/m2
18:49 67.5 °F 48.8 °F 29.92 in Calm   4.0 mph 51% 0.00 in 5.00 W/m2
18:54 67.1 °F 47.9 °F 29.92 in NW 1.0 mph 4.0 mph 50% 0.00 in 0.00 W/m2
18:59 66.7 °F 48.0 °F 29.92 in NW 3.0 mph 5.0 mph 51% 0.00 in 0.00 W/m2
19:04 66.3 °F 47.7 °F 29.92 in NW 4.0 mph 6.0 mph 51% 0.00 in 0.00 W/m2
19:09 65.9 °F 47.3 °F 29.93 in NW 4.0 mph 6.0 mph 51% 0.00 in 0.00 W/m2
19:14 65.5 °F 47.4 °F 29.93 in NW 3.0 mph 6.0 mph 52% 0.00 in 0.00 W/m2
19:19 65.2 °F 47.2 °F 29.93 in NW 4.0 mph 6.0 mph 52% 0.00 in 0.00 W/m2
19:24 65.0 °F 47.0 °F 29.94 in NW 5.0 mph 7.0 mph 52% 0.00 in 0.00 W/m2
19:29 64.7 °F 46.7 °F 29.94 in Calm   5.0 mph 52% 0.00 in 0.00 W/m2
19:34 64.4 °F 46.4 °F 29.94 in Calm   6.0 mph 52% 0.00 in 0.00 W/m2
19:39 64.1 °F 46.6 °F 29.94 in NW 1.0 mph 5.0 mph 53% 0.00 in 0.00 W/m2
19:44 63.9 °F 46.5 °F 29.94 in NW 3.0 mph 6.0 mph 53% 0.00 in 0.00 W/m2
19:49 63.7 °F 46.3 °F 29.94 in NW 3.0 mph 4.0 mph 53% 0.00 in 0.00 W/m2
19:54 63.6 °F 46.2 °F 29.95 in Calm   5.0 mph 53% 0.00 in 0.00 W/m2
19:59 63.4 °F 46.0 °F 29.94 in NW 4.0 mph 6.0 mph 53% 0.00 in 0.00 W/m2
20:05 63.3 °F 45.9 °F 29.94 in NW 5.0 mph 5.0 mph 53% 0.00 in 0.00 W/m2
20:10 63.0 °F 45.6 °F 29.94 in NW 3.0 mph 5.0 mph 53% 0.00 in 0.00 W/m2
20:15 62.8 °F 45.4 °F 29.94 in Calm   4.0 mph 53% 0.00 in 0.00 W/m2
20:20 62.7 °F 45.3 °F 29.94 in Calm   1.0 mph 53% 0.00 in 0.00 W/m2
20:25 62.5 °F 45.2 °F 29.94 in NW 3.0 mph 5.0 mph 53% 0.00 in 0.00 W/m2
20:30 62.4 °F 45.5 °F 29.94 in NNW 4.0 mph 5.0 mph 54% 0.00 in 0.00 W/m2
20:35 62.3 °F 45.5 °F 29.95 in NNW 5.0 mph 7.0 mph 54% 0.00 in 0.00 W/m2
20:40 62.2 °F 45.4 °F 29.95 in NNW 3.0 mph 6.0 mph 54% 0.00 in 0.00 W/m2
20:45 62.2 °F 45.4 °F 29.95 in NNW 3.0 mph 5.0 mph 54% 0.00 in 0.00 W/m2
20:50 62.1 °F 45.3 °F 29.95 in Calm   5.0 mph 54% 0.00 in 0.00 W/m2
20:55 62.1 °F 45.3 °F 29.95 in NNW 3.0 mph 6.0 mph 54% 0.00 in 0.00 W/m2
21:00 62.1 °F 45.3 °F 29.95 in Calm   6.0 mph 54% 0.00 in 0.00 W/m2
21:05 62.0 °F 45.2 °F 29.95 in Calm   4.0 mph 54% 0.00 in 0.00 W/m2
21:10 61.9 °F 45.1 °F 29.95 in Calm   5.0 mph 54% 0.00 in 0.00 W/m2
21:15 61.8 °F 45.0 °F 29.96 in Calm   5.0 mph 54% 0.00 in 0.00 W/m2
21:20 61.7 °F 44.9 °F 29.95 in NNW 1.0 mph 4.0 mph 54% 0.00 in 0.00 W/m2
21:25 61.6 °F 44.8 °F 29.95 in NNW 3.0 mph 5.0 mph 54% 0.00 in 0.00 W/m2
21:30 61.5 °F 45.2 °F 29.95 in Calm   4.0 mph 55% 0.00 in 0.00 W/m2
21:35 61.4 °F 45.1 °F 29.96 in NNW 3.0 mph 5.0 mph 55% 0.00 in 0.00 W/m2
21:40 61.3 °F 45.0 °F 29.96 in NNW 3.0 mph 5.0 mph 55% 0.00 in 0.00 W/m2
21:45 61.2 °F 44.9 °F 29.96 in Calm   5.0 mph 55% 0.00 in 0.00 W/m2
21:50 61.1 °F 45.3 °F 29.96 in Calm   5.0 mph 56% 0.00 in 0.00 W/m2
21:55 61.1 °F 45.3 °F 29.95 in North 3.0 mph 6.0 mph 56% 0.00 in 0.00 W/m2
22:00 61.0 °F 45.2 °F 29.95 in North 1.0 mph 5.0 mph 56% 0.00 in 0.00 W/m2
22:05 60.9 °F 45.1 °F 29.95 in North 1.0 mph 5.0 mph 56% 0.00 in 0.00 W/m2
22:10 60.8 °F 45.0 °F 29.95 in North 4.0 mph 6.0 mph 56% 0.00 in 0.00 W/m2
22:15 60.8 °F 45.0 °F 29.95 in NNE 6.0 mph 7.0 mph 56% 0.00 in 0.00 W/m2
22:20 60.7 °F 44.9 °F 29.95 in NNE 2.0 mph 7.0 mph 56% 0.00 in 0.00 W/m2
22:25 60.7 °F 44.9 °F 29.95 in NNE 1.0 mph 5.0 mph 56% 0.00 in 0.00 W/m2
22:30 60.7 °F 44.9 °F 29.95 in NNE 1.0 mph 5.0 mph 56% 0.00 in 0.00 W/m2
22:35 60.7 °F 44.9 °F 29.95 in Calm   1.0 mph 56% 0.00 in 0.00 W/m2
22:40 60.7 °F 44.5 °F 29.94 in Calm   3.0 mph 55% 0.00 in 0.00 W/m2
22:45 60.7 °F 44.5 °F 29.94 in NE 3.0 mph 6.0 mph 55% 0.00 in 0.00 W/m2
22:47 60.7 °F 44.5 °F 29.94 in NE 4.0 mph 5.0 mph 55% 0.00 in 0.00 W/m2
22:52 60.6 °F 44.4 °F 29.94 in Calm   6.0 mph 55% 0.00 in 0.00 W/m2
22:57 60.6 °F 44.4 °F 29.94 in ENE 2.0 mph 5.0 mph 55% 0.00 in 0.00 W/m2
23:02 60.5 °F 44.7 °F 29.94 in Calm   6.0 mph 56% 0.00 in 0.00 W/m2
23:07 60.5 °F 44.7 °F 29.94 in ENE 2.0 mph 6.0 mph 56% 0.00 in 0.00 W/m2
23:12 60.4 °F 44.7 °F 29.94 in ENE 1.0 mph 5.0 mph 56% 0.00 in 0.00 W/m2
23:17 60.5 °F 44.7 °F 29.94 in ENE 2.0 mph 6.0 mph 56% 0.00 in 0.00 W/m2
23:22 60.4 °F 44.7 °F 29.94 in East 4.0 mph 6.0 mph 56% 0.00 in 0.00 W/m2
23:27 60.3 °F 45.0 °F 29.94 in East 4.0 mph 6.0 mph 57% 0.00 in 0.00 W/m2
23:32 60.3 °F 45.0 °F 29.94 in Calm   5.0 mph 57% 0.00 in 0.00 W/m2
23:37 60.2 °F 44.9 °F 29.94 in East 2.0 mph 5.0 mph 57% 0.00 in 0.00 W/m2
23:42 60.2 °F 44.9 °F 29.94 in East 4.0 mph 4.0 mph 57% 0.00 in 0.00 W/m2
23:47 60.2 °F 44.9 °F 29.94 in East 3.0 mph 4.0 mph 57% 0.00 in 0.00 W/m2
23:52 60.1 °F 44.8 °F 29.94 in East 3.0 mph 4.0 mph 57% 0.00 in 0.00 W/m2
23:57 60.0 °F 44.7 °F 29.93 in East 2.0 mph 4.0 mph 57% 0.00 in 0.00 W/m2
Foresthill Weather
 WU-history PHP script courtesy of   Juneau County Weather.
powered by Cumulus v1.9.3 (1059)
Ambient Weather VWS v14.00
Top Contact Website Map Copyright © 2007 - 2018 Foresthillweather.com Never base important decisions on this or any weather information obtained from the Internet